Weather Roundup
Issued by NWS

Home | Current Version | Previous Version | Text Only | Print | Product List | Glossary On
Versions: 1 2 3 4 5 6 7 8 9 10 11 12 13 14 15 16 17 18 19 20 21 22 23 24 25 26 27 28 29 30 31 32 33 34 35 36 37 38 39 40 41 42 43 44 45 46 47 48 49 50
013
NZUS93 KARX 251459
HRRWXR

CURRENT HOURLY OBSERVATIONS ACROSS
MUCH OF THE UPPER MISSISSIPPI VALLEY
NATIONAL WEATHER SERVICE LA CROSSE WI
1000 AM CDT WED APR 25 2018


...SOUTHEAST MINNESOTA...


CITY           SKY/WX    TMP DP  RH WIND       PRES   REMARKS
ROCHESTER      FAIR      46  32  58 N5        30.22S
ROCHESTER/MAYO FAIR      44  29  55 CALM      30.22F
WINONA         FAIR      46  32  57 N3        30.21S
AUSTIN         FAIR      45  34  65 NE5       30.21F
ALBERT LEA     FAIR      43  30  61 N3        30.23F
DODGE CENTER   FAIR      45  28  53 E3        30.22F
PRESTON        FAIR      44  32  64 CALM      30.21F
OWATONNA       FAIR      43  30  61 CALM      30.24S
FARIBAULT      NOT AVBL
$$

...ELSEWHERE IN MINNESOTA...


CITY           SKY/WX    TMP DP  RH WIND       PRES   REMARKS
MINNEAPOLIS    FAIR      45  27  49 E5        30.25S
INTNL FALLS    FAIR      46  24  42 S12       30.16F
DULUTH         FAIR      41  25  53 CALM      30.20F
RED WING       FAIR      45  25  45 S3        30.23F
REDWOOD FALLS  SUNNY     42  27  55 CALM      30.26F
MANKATO        FAIR      42  28  57 N3        30.26S
WORTHINGTON    SUNNY     41  31  67 N6        30.26F
FAIRMONT       SUNNY     41  32  70 N8        30.26F
$$

...SOUTHWEST WISCONSIN...


CITY           SKY/WX    TMP DP  RH WIND       PRES   REMARKS
LA CROSSE      FAIR      48  35  60 NW7       30.21S
PRAIRIE DU CHI FAIR      49  34  56 NW6       30.19F
BOSCOBEL       FAIR      51  35  54 VRB3      30.19F
LONE ROCK      NOT AVBL
PLATTEVILLE    FAIR      50  38  64 NE8       30.17S
FORT MC COY    FAIR      45  35  68 W3        30.20S
MAUSTON-NEW LI FAIR      46  33  61 NE6       30.18S
VIROQUA        FAIR      46  38  73 N5        30.19R
WIS DELLS      FAIR      46  32  58 N6        30.17S
$$

...ELSEWHERE IN WISCONSIN...


CITY           SKY/WX    TMP DP  RH WIND       PRES   REMARKS
MILWAUKEE      FAIR      47  30  51 N20G30    30.13S
MADISON        FAIR      49  34  56 N10       30.16R
GREEN BAY      FAIR      44  30  57 N14       30.16F
EAU CLAIRE     NOT AVBL
BLACK RVR FLS  FAIR      45  29  53 N5        30.20F
MEDFORD        FAIR      38  29  70 N9        30.18S WCI  32
WAUSAU         FAIR      40  27  59 NE8       30.16F WCI  34
WIS RAPIDS     FAIR      45  28  51 VRB7      30.19F
MARSHFIELD     FAIR      43  30  60 VRB5      30.17F
RICE LAKE      FAIR      40  27  58 N3        30.23F
$$

...NORTHEAST IOWA...


CITY           SKY/WX    TMP DP  RH WIND       PRES   REMARKS
WATERLOO       FAIR      53  36  52 N9        30.19F
DUBUQUE        FAIR      50  37  61 NE7       30.16S
DECORAH        FAIR      48  36  61 VRB5      30.18F
MASON CITY     SUNNY     46  35  65 E3        30.23S
CHARLES CITY   FAIR      50  36  57 NE6       30.21S
OELWEIN        FAIR      52  37  58 VRB6      30.19S
$$

...ELSEWHERE IN IOWA...


CITY           SKY/WX    TMP DP  RH WIND       PRES   REMARKS
DES MOINES     CLOUDY    53  33  46 NE14      30.19S
IOWA CITY      FAIR      53  34  48 NE9       30.18R
FORT DODGE     SUNNY     48  35  60 N8        30.22F
MARSHALLTOWN   CLOUDY    52  36  54 NE9       30.18F
CEDAR RAPIDS   LGT RAIN  54  35  48 NE12      30.16R
$$

...NORTHERN ILLINOIS...


CITY           SKY/WX    TMP DP  RH WIND       PRES   REMARKS
CHICAGO-OHARE  FAIR      49  30  48 N18       30.12R
CHICAGO-MIDWAY FAIR      50  32  50 N15       30.12R
MOLINE         FAIR      55  35  47 NE10      30.13F
ROCKFORD       FAIR      52  32  46 N10       30.16F
PEORIA         FAIR      52  37  56 NE14      30.10S
$$

NOTE: "FAIR" INDICATES FEW OR NO CLOUDS BELOW 12,000 FEET WITH NO
SIGNIFICANT WEATHER AND/OR OBSTRUCTIONS TO VISIBILITY. WIND
SPEEDS ARE IN MILES-PER-HOUR.




USA.gov is the U.S. government's official web portal to all federal, state and local government web resources and services.